FENGYUN 1C DEB, 29750

Orbit data source: Space-Track

FENGYUN 1C DEB, 29750 is space debris in SSO originally from a launch on Mon, 10 May 1999 UTC launched from the Taiyaun Space Center, China (TSC). Fengyun 1C debris stems from the Chinese weather satellite Fengyun-1C, which was intentionally destroyed by a Chinese anti-satellite missile in 2007. This event dramatically increased the amount of space debris, with thousands of trackable fragments posing hazards to satellites and human spaceflight. The Fengyun 1C debris cloud has become a focal point in discussions about space sustainability and the need for international regulations to prevent the creation of new debris.

Loading next visibility...
Identifier
29750, 1999-025AQ
Orbit
SSO
Country
Flag of CNCN / PRC
Related business
Manufacturer
Unknown
Mission
Spacecraft
Bus & Motor
Unknown
Mass
Unknown
Launch date (UTC)
1999-05-10 (27 years ago)
Launch vehicle
Unknown
Launch site
Taiyaun Space Center, China (TSC)
Object type
Payload
Rocket body
Debris
Shape & HBR
Unknown shape, 0.1 m
Radar Cross Section
Medium (>0.1 m² and <1 m²)

Expand to show TLE details & history
Last TLE update: 22 hours ago

TLE from 22 hours ago
0 FENGYUN 1C DEB
1 29750U 99025AQ  26238.05482005  .00000172  00000-0  12163-3 0  9999
2 29750  98.7313 264.8155 0034795 296.1872 119.3838 14.09849160  6731
Epoch: 2026-08-26T01:18Z
TLE epoch observation values (Epoch: 2026-08-26T01:18:56.452Z)
Latitude
55.04806°
Longitude
-101.85827°
Altitude
881.392 km
Speed
7.41 km/s
True Right ascension
16h 48m 45s
True Declination
54° 53' 21"
Sunlit
Object was in daylight at epoch
Visualization orbit readout
Latitude
Unknown
Longitude
Unknown
Altitude
Unknown
Speed
Unknown
Apparent Right ascension
Unknown
Apparent Declination
Unknown
Sunlit
N/A
Visualization observer readout
Local Sidereal Time
14:41:19
Azimuth
Unknown
Elevation
Unknown
Doppler factor
Unknown
Orbital elements
Apogee altitude
882.236 km
Perigee altitude
831.886 km
Semi-major axis
7,235.198 km
Eccentricity
0.00348
Inclination
98.7313°
RAAN
264.8155°
Arg. of periapsis
296.1872°
True anomaly
119.73048°
Mean anomaly
119.3838°
Eccentric anomaly
119.55722°
Mean motion
3.52669 °/min
Orbital period
102.08 mins
BSTAR
0.00012163
Loading maneuver chart data...
Computing Atmospheric mass density...

Documentation

Showing up to 5 results
|